�������l�o���
Date,Time,MP-1(��Sv/h),MP-2(��Sv/h),MP-3(��Sv/h),MP-4(��Sv/h),MP-5(��Sv/h),MP-6(��Sv/h),MP-7(��Sv/h),MP-8(��Sv/h),����,����(m/s),���J
2023/05/21,00:00,0.539,0.783,0.480,0.951,0.688,0.319,0.563,0.533,�k�k��,5.4,��
2023/05/21,00:10,0.539,0.784,0.478,0.952,0.689,0.318,0.561,0.533,�k�k��,5.8,��
2023/05/21,00:20,0.538,0.785,0.479,0.953,0.689,0.317,0.561,0.534,�k�k��,6.0,��
2023/05/21,00:30,0.538,0.783,0.479,0.952,0.690,0.318,0.563,0.535,�k�k��,6.1,��
2023/05/21,00:40,0.539,0.786,0.479,0.952,0.691,0.318,0.563,0.534,�k�k��,6.1,��
2023/05/21,00:50,0.538,0.784,0.479,0.952,0.689,0.317,0.561,0.534,�k�k��,5.7,��
2023/05/21,01:00,0.538,0.786,0.480,0.952,0.689,0.319,0.562,0.533,�k�k��,5.6,��
2023/05/21,01:10,0.538,0.786,0.480,0.953,0.690,0.316,0.562,0.533,�k�k��,5.4,��
2023/05/21,01:20,0.540,0.785,0.480,0.953,0.691,0.318,0.563,0.535,�k�k��,4.2,�L
2023/05/21,01:30,0.540,0.787,0.479,0.954,0.690,0.319,0.563,0.535,�k�k��,4.5,��
2023/05/21,01:40,0.540,0.785,0.478,0.953,0.691,0.318,0.564,0.533,�k�k��,3.7,��
2023/05/21,01:50,0.540,0.782,0.480,0.953,0.690,0.319,0.563,0.534,�k,4.1,��
2023/05/21,02:00,0.540,0.785,0.479,0.954,0.690,0.318,0.563,0.533,�k,4.7,��
2023/05/21,02:10,0.539,0.785,0.479,0.955,0.688,0.319,0.563,0.534,�k,4.5,��
2023/05/21,02:20,0.540,0.785,0.480,0.954,0.688,0.317,0.564,0.536,�k,3.3,��
2023/05/21,02:30,0.539,0.784,0.479,0.952,0.690,0.319,0.563,0.534,�k�k��,3.1,��
2023/05/21,02:40,0.540,0.786,0.479,0.955,0.691,0.320,0.562,0.536,�k,2.9,��
2023/05/21,02:50,0.538,0.784,0.479,0.955,0.690,0.319,0.565,0.534,�k,3.1,�L
2023/05/21,03:00,0.539,0.785,0.479,0.954,0.691,0.320,0.564,0.533,�k,3.1,��
2023/05/21,03:10,0.539,0.786,0.479,0.954,0.691,0.318,0.563,0.534,�k,3.5,�L
2023/05/21,03:20,0.538,0.786,0.479,0.954,0.690,0.318,0.563,0.536,�k�k��,3.7,�L
2023/05/21,03:30,0.540,0.784,0.480,0.953,0.690,0.318,0.564,0.535,�k�k��,3.6,�L
2023/05/21,03:40,0.540,0.784,0.479,0.953,0.690,0.319,0.564,0.534,�k,2.2,�L
2023/05/21,03:50,0.538,0.787,0.482,0.952,0.691,0.319,0.563,0.535,�k,2.3,�L
2023/05/21,04:00,0.541,0.786,0.479,0.953,0.690,0.318,0.563,0.534,�k,3.2,��
2023/05/21,04:10,0.538,0.787,0.480,0.953,0.692,0.318,0.564,0.534,�k,4.1,��
2023/05/21,04:20,0.538,0.785,0.481,0.957,0.690,0.318,0.564,0.534,�k�k��,4.3,��
2023/05/21,04:30,0.539,0.785,0.480,0.955,0.691,0.318,0.564,0.534,�k�k��,3.0,��
2023/05/21,04:40,0.540,0.787,0.480,0.953,0.692,0.319,0.565,0.535,�k�k��,2.2,��
2023/05/21,04:50,0.540,0.785,0.482,0.954,0.689,0.320,0.564,0.534,�k�k��,2.3,��
2023/05/21,05:00,0.540,0.787,0.479,0.952,0.690,0.319,0.563,0.534,�k,2.6,��
2023/05/21,05:10,0.540,0.786,0.481,0.955,0.691,0.319,0.563,0.534,�k,1.4,��
2023/05/21,05:20,0.541,0.786,0.481,0.955,0.689,0.319,0.564,0.534,�k,1.5,��
2023/05/21,05:30,0.541,0.785,0.482,0.954,0.692,0.319,0.565,0.534,�k�k��,1.5,��
2023/05/21,05:40,0.540,0.786,0.480,0.955,0.690,0.319,0.565,0.534,�k,2.0,��
2023/05/21,05:50,0.540,0.784,0.482,0.955,0.690,0.319,0.563,0.536,�k��,1.5,��
2023/05/21,06:00,0.541,0.787,0.481,0.951,0.691,0.319,0.563,0.534,���k��,1.1,��
2023/05/21,06:10,0.539,0.787,0.482,0.954,0.691,0.319,0.564,0.536,�k�k��,0.8,��
2023/05/21,06:20,0.539,0.787,0.479,0.955,0.692,0.320,0.565,0.535,-,CALM,��
2023/05/21,06:30,0.542,0.785,0.480,0.954,0.694,0.319,0.564,0.534,�k�k��,0.9,��
2023/05/21,06:40,0.541,0.785,0.482,0.956,0.692,0.318,0.563,0.534,��,1.2,��
2023/05/21,06:50,0.542,0.787,0.482,0.955,0.691,0.318,0.563,0.533,��,0.8,��
2023/05/21,07:00,0.539,0.784,0.481,0.956,0.692,0.318,0.563,0.532,�k��,1.4,��
2023/05/21,07:10,0.542,0.783,0.480,0.955,0.692,0.316,0.564,0.534,�k��,1.4,��
2023/05/21,07:20,0.540,0.782,0.480,0.956,0.692,0.317,0.564,0.534,���k��,1.4,��
2023/05/21,07:30,0.541,0.786,0.480,0.954,0.690,0.316,0.564,0.533,���k��,1.2,��
2023/05/21,07:40,0.539,0.786,0.481,0.956,0.690,0.317,0.565,0.533,���쓌,2.0,��
2023/05/21,07:50,0.540,0.785,0.479,0.955,0.693,0.317,0.563,0.532,���쓌,2.3,��
2023/05/21,08:00,0.539,0.785,0.480,0.956,0.689,0.318,0.564,0.534,���쓌,2.3,��
2023/05/21,08:10,0.541,0.787,0.480,0.955,0.691,0.317,0.564,0.532,���쓌,2.0,��
2023/05/21,08:20,0.541,0.786,0.480,0.958,0.692,0.318,0.563,0.532,���쓌,1.9,��
2023/05/21,08:30,0.541,0.789,0.479,0.955,0.692,0.317,0.564,0.532,���쓌,2.3,��
2023/05/21,08:40,0.540,0.787,0.479,0.955,0.693,0.318,0.563,0.533,�쓌,1.9,��
2023/05/21,08:50,0.540,0.790,0.481,0.955,0.692,0.318,0.564,0.531,�쓌,2.6,��
2023/05/21,09:00,0.543,0.789,0.480,0.956,0.692,0.318,0.565,0.533,�쓌,3.1,��
2023/05/21,09:10,0.542,0.788,0.481,0.957,0.693,0.318,0.564,0.532,�쓌,3.1,��
2023/05/21,09:20,0.542,0.790,0.482,0.955,0.691,0.318,0.564,0.533,�쓌,3.9,��
2023/05/21,09:30,0.542,0.791,0.480,0.956,0.693,0.318,0.565,0.533,�쓌,4.0,��
2023/05/21,09:40,0.545,0.791,0.481,0.957,0.693,0.319,0.565,0.533,�쓌,2.6,��
2023/05/21,09:50,0.543,0.792,0.482,0.957,0.693,0.319,0.566,0.533,���쓌,2.6,��
2023/05/21,10:00,0.544,0.789,0.483,0.957,0.694,0.320,0.564,0.533,���쓌,3.3,��
2023/05/21,10:10,0.544,0.791,0.484,0.956,0.693,0.318,0.567,0.536,��쓌,3.0,��
2023/05/21,10:20,0.544,0.791,0.483,0.956,0.695,0.320,0.567,0.533,�쓌,3.5,��
2023/05/21,10:30,0.544,0.793,0.484,0.959,0.696,0.321,0.566,0.534,���쓌,3.7,��
2023/05/21,10:40,0.545,0.792,0.486,0.957,0.695,0.318,0.566,0.535,���쓌,3.2,��
2023/05/21,10:50,0.544,0.792,0.483,0.958,0.696,0.320,0.565,0.535,���쓌,3.2,��
2023/05/21,11:00,0.545,0.793,0.483,0.957,0.698,0.319,0.566,0.534,�쓌,2.5,��
2023/05/21,11:10,0.544,0.794,0.483,0.956,0.697,0.320,0.567,0.535,��쓌,3.1,��
2023/05/21,11:20,0.545,0.796,0.485,0.956,0.696,0.319,0.567,0.534,��쓌,2.8,��
2023/05/21,11:30,0.547,0.795,0.484,0.956,0.698,0.319,0.567,0.535,��쓌,4.8,��
2023/05/21,11:40,0.544,0.795,0.484,0.955,0.697,0.320,0.567,0.534,��쓌,6.0,��
2023/05/21,11:50,0.546,0.795,0.486,0.956,0.698,0.319,0.569,0.536,��쓌,8.4,��
2023/05/21,12:00,0.546,0.796,0.485,0.956,0.699,0.320,0.568,0.535,��쓌,7.5,��
2023/05/21,12:10,0.548,0.796,0.484,0.957,0.699,0.320,0.567,0.536,��쓌,8.0,��
2023/05/21,12:20,0.546,0.798,0.486,0.957,0.698,0.322,0.569,0.535,��쓌,8.8,��
2023/05/21,12:30,0.548,0.796,0.487,0.955,0.699,0.322,0.568,0.535,��쓌,8.0,��
2023/05/21,12:40,0.547,0.797,0.487,0.957,0.698,0.321,0.569,0.535,��쓌,11.9,��
2023/05/21,12:50,0.549,0.798,0.486,0.957,0.701,0.321,0.566,0.535,��쓌,9.0,��
2023/05/21,13:00,0.548,0.798,0.487,0.958,0.699,0.322,0.568,0.537,��쓌,10.2,��
2023/05/21,13:10,0.549,0.793,0.487,0.960,0.701,0.322,0.568,0.535,��쓌,9.8,��
2023/05/21,13:20,0.547,0.799,0.486,0.959,0.701,0.322,0.569,0.535,��,11.9,��
2023/05/21,13:30,0.550,0.799,0.486,0.957,0.701,0.322,0.568,0.535,��쓌,9.8,��
2023/05/21,13:40,0.549,0.797,0.485,0.958,0.703,0.321,0.568,0.535,��쓌,11.6,��
2023/05/21,13:50,0.550,0.800,0.487,0.956,0.701,0.321,0.570,0.535,��쓌,12.7,��
2023/05/21,14:00,0.548,0.800,0.487,0.957,0.701,0.320,0.567,0.535,��쓌,11.4,��
2023/05/21,14:10,0.548,0.798,0.485,0.959,0.701,0.321,0.568,0.535,��쓌,12.8,��
2023/05/21,14:20,0.550,0.800,0.488,0.959,0.704,0.322,0.568,0.536,��쓌,13.0,��
2023/05/21,14:30,0.550,0.799,0.489,0.959,0.701,0.322,0.569,0.538,��쓌,12.7,��
2023/05/21,14:40,0.549,0.799,0.488,0.960,0.704,0.322,0.569,0.537,��쓌,11.7,��
2023/05/21,14:50,0.550,0.800,0.488,0.960,0.704,0.322,0.567,0.535,��쓌,13.0,��
2023/05/21,15:00,0.548,0.799,0.488,0.960,0.703,0.322,0.568,0.536,��쓌,12.5,��
2023/05/21,15:10,0.548,0.799,0.488,0.960,0.706,0.322,0.567,0.536,��,11.3,��
2023/05/21,15:20,0.549,0.801,0.487,0.962,0.703,0.322,0.567,0.535,��쓌,13.0,��
2023/05/21,15:30,0.550,0.800,0.487,0.960,0.704,0.323,0.568,0.536,��,11.4,��
2023/05/21,15:40,0.550,0.799,0.487,0.960,0.704,0.321,0.568,0.536,��쓌,10.7,��
2023/05/21,15:50,0.551,0.801,0.488,0.961,0.706,0.324,0.567,0.536,��쓌,9.4,��
2023/05/21,16:00,0.550,0.801,0.487,0.962,0.704,0.324,0.567,0.536,��,8.4,��
2023/05/21,16:10,0.551,0.801,0.487,0.960,0.704,0.321,0.568,0.537,��,8.6,��
2023/05/21,16:20,0.552,0.802,0.490,0.961,0.704,0.321,0.566,0.536,��,9.4,��
2023/05/21,16:30,0.552,0.800,0.487,0.960,0.702,0.321,0.567,0.535,��,9.1,��
2023/05/21,16:40,0.549,0.800,0.489,0.962,0.704,0.323,0.567,0.537,��,6.5,��
2023/05/21,16:50,0.551,0.799,0.488,0.961,0.703,0.322,0.568,0.535,��,4.7,��
2023/05/21,17:00,0.550,0.799,0.487,0.963,0.703,0.321,0.568,0.536,��,3.8,��
2023/05/21,17:10,0.552,0.801,0.489,0.965,0.701,0.321,0.568,0.537,��,4.1,��
2023/05/21,17:20,0.551,0.801,0.489,0.963,0.703,0.322,0.568,0.536,��,4.2,��
2023/05/21,17:30,0.550,0.802,0.489,0.964,0.703,0.321,0.567,0.537,��,4.0,��
2023/05/21,17:40,0.549,0.801,0.489,0.965,0.703,0.322,0.568,0.535,��,3.6,��
2023/05/21,17:50,0.550,0.800,0.490,0.965,0.704,0.322,0.567,0.537,��,3.9,��
2023/05/21,18:00,0.549,0.801,0.490,0.964,0.704,0.322,0.568,0.536,��,4.2,��
2023/05/21,18:10,0.550,0.801,0.491,0.962,0.705,0.322,0.570,0.537,��,2.6,��
2023/05/21,18:20,0.551,0.801,0.491,0.964,0.703,0.324,0.568,0.538,��,2.0,��
2023/05/21,18:30,0.548,0.803,0.491,0.965,0.704,0.323,0.569,0.536,��쐼,2.9,��
2023/05/21,18:40,0.550,0.803,0.489,0.963,0.704,0.321,0.568,0.539,��,1.7,��
2023/05/21,18:50,0.549,0.804,0.489,0.967,0.705,0.323,0.567,0.539,�쐼,1.2,��
2023/05/21,19:00,0.552,0.805,0.490,0.964,0.707,0.323,0.569,0.538,��,1.2,��
2023/05/21,19:10,0.552,0.804,0.491,0.964,0.706,0.324,0.570,0.539,��쐼,2.6,��
2023/05/21,19:20,0.553,0.803,0.490,0.966,0.707,0.323,0.570,0.540,�쐼,2.0,��
2023/05/21,19:30,0.553,0.804,0.491,0.968,0.706,0.323,0.569,0.538,��쐼,1.5,��
2023/05/21,19:40,0.552,0.804,0.491,0.965,0.706,0.323,0.570,0.538,��,1.2,��
2023/05/21,19:50,0.554,0.805,0.491,0.964,0.708,0.324,0.569,0.539,��,2.0,��
2023/05/21,20:00,0.552,0.804,0.491,0.967,0.707,0.323,0.571,0.538,��쓌,2.5,��
2023/05/21,20:10,0.553,0.805,0.490,0.963,0.707,0.323,0.569,0.540,��쓌,2.6,��
2023/05/21,20:20,0.554,0.804,0.491,0.965,0.706,0.323,0.571,0.539,��쓌,3.4,��
2023/05/21,20:30,0.552,0.804,0.491,0.964,0.707,0.325,0.569,0.540,��,3.8,��
2023/05/21,20:40,0.554,0.804,0.491,0.967,0.705,0.324,0.570,0.540,��,3.7,��
2023/05/21,20:50,0.552,0.806,0.490,0.965,0.707,0.325,0.571,0.536,��,3.3,��
2023/05/21,21:00,0.551,0.802,0.491,0.967,0.706,0.323,0.570,0.539,��쐼,3.7,��
2023/05/21,21:10,0.552,0.804,0.491,0.964,0.707,0.325,0.571,0.538,��쐼,3.8,��
2023/05/21,21:20,0.553,0.806,0.490,0.966,0.705,0.324,0.570,0.539,��쐼,2.5,��
2023/05/21,21:30,0.553,0.804,0.490,0.967,0.707,0.324,0.571,0.539,��쐼,2.3,��
2023/05/21,21:40,0.553,0.804,0.489,0.964,0.707,0.324,0.569,0.539,��,2.3,��
2023/05/21,21:50,0.553,0.803,0.491,0.966,0.709,0.325,0.571,0.537,��,1.5,��
2023/05/21,22:00,0.553,0.804,0.492,0.966,0.704,0.326,0.570,0.539,�k�k��,1.7,��
2023/05/21,22:10,0.553,0.802,0.492,0.967,0.709,0.326,0.570,0.539,�k�k��,2.0,��
2023/05/21,22:20,0.553,0.804,0.490,0.967,0.707,0.324,0.569,0.538,���k��,1.5,��
2023/05/21,22:30,0.554,0.805,0.489,0.966,0.705,0.326,0.570,0.538,��,1.4,��
2023/05/21,22:40,0.553,0.804,0.491,0.967,0.706,0.325,0.570,0.539,���쐼,0.9,��
2023/05/21,22:50,0.555,0.803,0.492,0.967,0.708,0.324,0.570,0.538,��쓌,1.2,��
2023/05/21,23:00,0.554,0.806,0.492,0.968,0.708,0.324,0.571,0.539,��쓌,1.7,��
2023/05/21,23:10,0.554,0.805,0.491,0.966,0.708,0.325,0.572,0.537,�쓌,0.9,��
2023/05/21,23:20,0.552,0.805,0.491,0.966,0.706,0.326,0.572,0.539,-,CALM,��
2023/05/21,23:30,0.554,0.803,0.492,0.966,0.707,0.324,0.570,0.540,-,CALM,��
2023/05/21,23:40,0.554,0.803,0.492,0.967,0.705,0.325,0.570,0.540,-,CALM,��
2023/05/21,23:50,0.553,0.803,0.492,0.967,0.706,0.324,0.570,0.538,�k�k��,0.9,��
